CSN6044 ZGHA-ZGGG

Flight info

Callsign CSN6044
Flight time 1h 0m
Altitude 39100
Route UBM9X UBMOG W615 IDAXI R473 BEMAG/K0887S1220 V5 ENVIP ENVIP8
Aircraft B77W/H-SDE1E2E3FGHIJ2J3J4J5M1RWXY/LB1D1

Departure

Time 2026-04-24 04:51
Airport Changsha Huanghua International Airport (ZGHA)

Arrival

Time 2026-04-24 05:51
Airport Guangzhou Baiyun International Airport (ZGGG)
Time Latitude Longitude Altitude Speed Heading
2026-04-24 04:34 28.18674 113.21606 232 ft 0 kts 311°
2026-04-24 04:44 28.18673 113.21608 232 ft 2 kts 310°
2026-04-24 04:44 28.18665 113.21622 232 ft 2 kts 287°
2026-04-24 04:44 28.18662 113.21639 232 ft 2 kts 268°
2026-04-24 04:45 28.18665 113.21655 232 ft 2 kts 249°
2026-04-24 04:45 28.18671 113.21671 232 ft 2 kts 230°
2026-04-24 04:45 28.18682 113.21682 232 ft 2 kts 212°
2026-04-24 04:45 28.18696 113.21689 232 ft 2 kts 193°
2026-04-24 04:46 28.18711 113.21691 232 ft 2 kts 174°
2026-04-24 04:46 28.18723 113.21690 232 ft 0 kts 173°
2026-04-24 04:46 28.18724 113.21689 232 ft 0 kts 173°
2026-04-24 04:48 28.18710 113.21691 232 ft 7 kts 173°
2026-04-24 04:48 28.18654 113.21770 232 ft 19 kts 116°
2026-04-24 04:48 28.18511 113.21812 232 ft 22 kts 176°
2026-04-24 04:49 28.18358 113.21822 232 ft 21 kts 177°
2026-04-24 04:49 28.18215 113.21831 232 ft 20 kts 175°
2026-04-24 04:49 28.18079 113.21840 232 ft 19 kts 176°
2026-04-24 04:49 28.17949 113.21849 232 ft 18 kts 176°
2026-04-24 04:50 28.17827 113.21857 232 ft 17 kts 176°
2026-04-24 04:50 28.17743 113.21920 232 ft 15 kts 99°
2026-04-24 04:50 28.17757 113.22032 232 ft 13 kts 47°
2026-04-24 04:50 28.17846 113.22045 232 ft 28 kts 356°
2026-04-24 04:51 28.18366 113.22009 232 ft 120 kts 357°
2026-04-24 04:51 28.19432 113.21938 528 ft 173 kts 354°
2026-04-24 04:51 28.20680 113.21824 1394 ft 185 kts 358°
2026-04-24 04:51 28.21982 113.21779 2247 ft 200 kts 357°
2026-04-24 04:52 28.23411 113.21700 3241 ft 219 kts 356°
2026-04-24 04:52 28.25081 113.21596 3761 ft 265 kts 355°
2026-04-24 04:52 28.27088 113.21469 3797 ft 290 kts 355°
2026-04-24 04:52 28.29049 113.21351 3883 ft 271 kts 355°
2026-04-24 04:53 28.30892 113.21238 3976 ft 265 kts 355°
2026-04-24 04:53 28.32753 113.21122 4332 ft 273 kts 355°
2026-04-24 04:53 28.34653 113.21079 5591 ft 275 kts
2026-04-24 04:53 28.36442 113.21707 6826 ft 281 kts 26°
2026-04-24 04:54 28.37938 113.23157 7857 ft 294 kts 51°
2026-04-24 04:54 28.38789 113.25304 8874 ft 306 kts 78°
2026-04-24 04:54 28.38986 113.27717 9896 ft 314 kts 87°
2026-04-24 04:54 28.39058 113.30190 10976 ft 319 kts 87°
2026-04-24 04:55 28.39150 113.32703 12030 ft 324 kts 86°
2026-04-24 04:55 28.39261 113.35258 13081 ft 329 kts 86°
2026-04-24 04:55 28.39382 113.37847 14088 ft 335 kts 86°
2026-04-24 04:55 28.39470 113.40472 15083 ft 339 kts 93°
2026-04-24 04:56 28.38972 113.43062 16042 ft 341 kts 116°
2026-04-24 04:56 28.37712 113.45286 17001 ft 338 kts 137°
2026-04-24 04:56 28.35853 113.46868 17956 ft 332 kts 159°
2026-04-24 04:56 28.33663 113.47630 18839 ft 329 kts 177°
2026-04-24 04:57 28.31398 113.47894 19778 ft 330 kts 181°
2026-04-24 04:57 28.29100 113.48056 20712 ft 333 kts 182°
2026-04-24 04:57 28.26773 113.48193 21560 ft 338 kts 183°
2026-04-24 04:57 28.24410 113.48328 22412 ft 343 kts 183°
2026-04-24 04:58 28.22028 113.48463 23247 ft 347 kts 183°
2026-04-24 04:58 28.19605 113.48601 24051 ft 351 kts 183°
2026-04-24 04:58 28.17164 113.48939 24824 ft 361 kts 172°
2026-04-24 04:58 28.14758 113.49937 25529 ft 374 kts 158°
2026-04-24 04:59 28.12561 113.51533 26185 ft 386 kts 146°
2026-04-24 04:59 28.10619 113.53670 26789 ft 397 kts 134°
2026-04-24 04:59 28.09048 113.56328 27354 ft 409 kts 121°
2026-04-24 04:59 28.07901 113.59319 27609 ft 419 kts 117°
2026-04-24 05:00 28.06578 113.62175 27618 ft 412 kts 128°
2026-04-24 05:00 28.04847 113.64714 27617 ft 403 kts 139°
2026-04-24 05:00 28.02786 113.66851 27608 ft 396 kts 149°
2026-04-24 05:00 28.00505 113.68516 27607 ft 388 kts 160°
2026-04-24 05:01 27.98051 113.69718 27606 ft 379 kts 169°
2026-04-24 05:01 27.95515 113.70441 27606 ft 373 kts 178°
2026-04-24 05:01 27.92958 113.70698 27604 ft 365 kts 187°
2026-04-24 05:01 27.90471 113.70456 27600 ft 355 kts 199°
2026-04-24 05:02 27.88062 113.69743 27613 ft 355 kts 201°
2026-04-24 05:02 27.85651 113.69139 27608 ft 357 kts 197°
2026-04-24 05:02 27.83180 113.68688 27608 ft 359 kts 194°
2026-04-24 05:02 27.80709 113.68340 27609 ft 360 kts 193°
2026-04-24 05:03 27.78215 113.68047 27609 ft 360 kts 192°
2026-04-24 05:03 27.75721 113.67789 27609 ft 361 kts 192°
2026-04-24 05:03 27.73197 113.67545 27610 ft 361 kts 192°
2026-04-24 05:03 27.70697 113.67312 27610 ft 360 kts 192°
2026-04-24 05:04 27.68200 113.67083 27609 ft 361 kts 192°
2026-04-24 05:04 27.65689 113.66855 27609 ft 361 kts 192°
2026-04-24 05:04 27.63168 113.66751 27609 ft 366 kts 186°
2026-04-24 05:04 27.60624 113.66813 27610 ft 366 kts 186°
2026-04-24 05:05 27.58072 113.66883 27610 ft 366 kts 186°
2026-04-24 05:05 27.55513 113.66952 27612 ft 366 kts 186°
2026-04-24 05:05 27.52982 113.67020 27612 ft 366 kts 186°
2026-04-24 05:05 27.50418 113.67089 27613 ft 366 kts 186°
2026-04-24 05:06 27.47868 113.67158 27613 ft 366 kts 186°
2026-04-24 05:06 27.45314 113.67270 27610 ft 369 kts 181°
2026-04-24 05:06 27.42737 113.67647 27613 ft 371 kts 179°
2026-04-24 05:06 27.40165 113.68057 27619 ft 382 kts 179°
2026-04-24 05:07 27.37470 113.68484 27621 ft 403 kts 179°
2026-04-24 05:07 27.34617 113.68937 27622 ft 424 kts 178°
2026-04-24 05:07 27.31622 113.69413 27620 ft 444 kts 178°
2026-04-24 05:07 27.28488 113.69912 27620 ft 464 kts 178°
2026-04-24 05:08 27.25215 113.70433 27618 ft 483 kts 177°
2026-04-24 05:08 27.21827 113.70973 27618 ft 502 kts 177°
2026-04-24 05:08 27.18344 113.71533 27617 ft 507 kts 177°
2026-04-24 05:08 27.14843 113.72098 27616 ft 506 kts 177°
2026-04-24 05:09 27.11388 113.72654 27615 ft 507 kts 177°
2026-04-24 05:09 27.07890 113.73216 27615 ft 506 kts 177°
2026-04-24 05:09 27.04363 113.73781 27613 ft 506 kts 177°
2026-04-24 05:09 27.00875 113.74339 27612 ft 506 kts 177°
2026-04-24 05:10 26.97388 113.74896 27612 ft 507 kts 177°
2026-04-24 05:10 26.93891 113.75454 27617 ft 506 kts 177°
2026-04-24 05:10 26.90387 113.76012 27622 ft 507 kts 177°
2026-04-24 05:10 26.86932 113.76563 27630 ft 506 kts 177°
2026-04-24 05:11 26.83426 113.77120 27635 ft 507 kts 177°
2026-04-24 05:11 26.79918 113.77678 27640 ft 506 kts 177°
2026-04-24 05:11 26.76469 113.78226 27645 ft 506 kts 177°
2026-04-24 05:11 26.72989 113.78983 27647 ft 512 kts 171°
2026-04-24 05:12 26.69543 113.80032 27648 ft 513 kts 169°
2026-04-24 05:12 26.66112 113.81110 27646 ft 512 kts 169°
2026-04-24 05:12 26.62684 113.82188 27645 ft 514 kts 169°
2026-04-24 05:12 26.59210 113.83278 27644 ft 513 kts 169°
2026-04-24 05:13 26.52357 113.85426 27643 ft 512 kts 169°
2026-04-24 05:13 26.48927 113.86495 27643 ft 513 kts 170°
2026-04-24 05:13 26.45467 113.87508 27649 ft 511 kts 171°
2026-04-24 05:14 26.42024 113.88500 27656 ft 511 kts 171°
2026-04-24 05:14 26.38561 113.89497 27665 ft 511 kts 171°
2026-04-24 05:14 26.35156 113.90476 27673 ft 511 kts 171°
2026-04-24 05:14 26.31673 113.91479 27683 ft 511 kts 171°
2026-04-24 05:15 26.28223 113.92474 27693 ft 512 kts 171°
2026-04-24 05:15 26.24771 113.93468 27704 ft 511 kts 171°
2026-04-24 05:15 26.21324 113.94461 27710 ft 511 kts 171°
2026-04-24 05:15 26.17903 113.95446 27711 ft 512 kts 171°
2026-04-24 05:16 26.14451 113.96440 27712 ft 511 kts 171°
2026-04-24 05:16 26.11014 113.97429 27713 ft 511 kts 171°
2026-04-24 05:16 26.07534 113.98430 27713 ft 511 kts 171°
2026-04-24 05:16 26.04096 113.99233 27712 ft 506 kts 177°
2026-04-24 05:17 26.00562 113.99493 27708 ft 499 kts 186°
2026-04-24 05:17 25.97148 113.99206 27706 ft 494 kts 192°
2026-04-24 05:17 25.93754 113.98657 27699 ft 493 kts 193°
2026-04-24 05:17 25.90358 113.98080 27689 ft 493 kts 194°
2026-04-24 05:18 25.86977 113.97501 27683 ft 493 kts 194°
2026-04-24 05:18 25.83586 113.96920 27674 ft 492 kts 194°
2026-04-24 05:18 25.80201 113.96339 27665 ft 493 kts 194°
2026-04-24 05:18 25.76803 113.95754 27655 ft 493 kts 194°
2026-04-24 05:19 25.73389 113.95167 27647 ft 493 kts 194°
2026-04-24 05:19 25.70006 113.94585 27648 ft 493 kts 194°
2026-04-24 05:19 25.66609 113.93999 27653 ft 492 kts 194°
2026-04-24 05:19 25.63196 113.93412 27657 ft 493 kts 194°
2026-04-24 05:20 25.59844 113.92835 27661 ft 493 kts 194°
2026-04-24 05:20 25.56436 113.92249 27666 ft 493 kts 194°
2026-04-24 05:20 25.53026 113.91663 27670 ft 493 kts 194°
2026-04-24 05:20 25.49637 113.91080 27674 ft 493 kts 194°
2026-04-24 05:21 25.46248 113.90498 27675 ft 492 kts 194°
2026-04-24 05:21 25.42857 113.89916 27672 ft 492 kts 194°
2026-04-24 05:21 25.39457 113.89333 27668 ft 494 kts 194°
2026-04-24 05:21 25.36053 113.88749 27665 ft 493 kts 194°
2026-04-24 05:22 25.32669 113.88168 27660 ft 493 kts 194°
2026-04-24 05:22 25.29271 113.87586 27656 ft 493 kts 194°
2026-04-24 05:22 25.25892 113.87007 27651 ft 494 kts 194°
2026-04-24 05:22 25.22496 113.86427 27646 ft 493 kts 194°
2026-04-24 05:23 25.19103 113.85846 27639 ft 493 kts 194°
2026-04-24 05:23 25.15693 113.85263 27634 ft 493 kts 194°
2026-04-24 05:23 25.12294 113.84682 27628 ft 492 kts 194°
2026-04-24 05:23 25.08898 113.84103 27624 ft 494 kts 194°
2026-04-24 05:24 25.05489 113.83521 27619 ft 492 kts 194°
2026-04-24 05:24 25.02114 113.82946 27615 ft 493 kts 194°
2026-04-24 05:24 24.98691 113.82363 27611 ft 493 kts 194°
2026-04-24 05:24 24.95319 113.81789 27611 ft 493 kts 194°
2026-04-24 05:25 24.91921 113.81211 27612 ft 493 kts 194°
2026-04-24 05:25 24.88524 113.80634 27614 ft 493 kts 194°
2026-04-24 05:25 24.85063 113.80045 27616 ft 493 kts 194°
2026-04-24 05:25 24.81695 113.79473 27616 ft 493 kts 194°
2026-04-24 05:26 24.78260 113.78889 27616 ft 493 kts 194°
2026-04-24 05:26 24.74865 113.78313 27615 ft 492 kts 194°
2026-04-24 05:26 24.71467 113.77737 27615 ft 493 kts 194°
2026-04-24 05:26 24.68076 113.77162 27614 ft 494 kts 194°
2026-04-24 05:27 24.64687 113.76588 27613 ft 493 kts 194°
2026-04-24 05:27 24.61276 113.76011 27612 ft 493 kts 194°
2026-04-24 05:27 24.57872 113.75435 27611 ft 493 kts 194°
2026-04-24 05:27 24.54485 113.74862 27611 ft 493 kts 194°
2026-04-24 05:28 24.51094 113.74289 27611 ft 494 kts 194°
2026-04-24 05:28 24.47681 113.73713 27612 ft 493 kts 194°
2026-04-24 05:28 24.44308 113.73143 27611 ft 493 kts 194°
2026-04-24 05:28 24.40904 113.72568 27610 ft 493 kts 194°
2026-04-24 05:29 24.37484 113.71992 27609 ft 493 kts 194°
2026-04-24 05:29 24.34099 113.71426 27608 ft 493 kts 194°
2026-04-24 05:29 24.30703 113.70860 27606 ft 494 kts 194°
2026-04-24 05:29 24.27313 113.70287 27604 ft 492 kts 194°
2026-04-24 05:30 24.23924 113.69710 27602 ft 493 kts 194°
2026-04-24 05:30 24.20511 113.69132 27602 ft 492 kts 194°
2026-04-24 05:30 24.17123 113.68556 27604 ft 495 kts 194°
2026-04-24 05:30 24.13722 113.67982 27578 ft 482 kts 194°
2026-04-24 05:31 24.10469 113.67436 27533 ft 463 kts 194°
2026-04-24 05:31 24.07327 113.66908 27205 ft 452 kts 194°
2026-04-24 05:31 24.04234 113.66384 26502 ft 449 kts 194°
2026-04-24 05:31 24.01165 113.65863 25699 ft 449 kts 194°
2026-04-24 05:32 23.98084 113.65341 24931 ft 447 kts 194°
2026-04-24 05:32 23.95024 113.64824 24250 ft 444 kts 194°
2026-04-24 05:32 23.91982 113.64311 23590 ft 439 kts 194°
2026-04-24 05:32 23.88960 113.63801 22919 ft 436 kts 194°
2026-04-24 05:33 23.85977 113.63297 22272 ft 431 kts 193°
2026-04-24 05:33 23.83024 113.62798 21614 ft 427 kts 194°
2026-04-24 05:33 23.80180 113.62009 20951 ft 417 kts 204°
2026-04-24 05:34 23.75146 113.59137 19345 ft 400 kts 215°
2026-04-24 05:34 23.72801 113.57557 18383 ft 399 kts 215°
2026-04-24 05:34 23.70453 113.55969 17683 ft 397 kts 215°
2026-04-24 05:34 23.68125 113.54393 17075 ft 392 kts 215°
2026-04-24 05:35 23.65812 113.52827 16463 ft 388 kts 215°
2026-04-24 05:35 23.63517 113.51272 15812 ft 386 kts 216°
2026-04-24 05:35 23.61239 113.49731 15155 ft 383 kts 214°
2026-04-24 05:35 23.58828 113.48464 14502 ft 385 kts 204°
2026-04-24 05:36 23.56243 113.47644 13860 ft 385 kts 199°
2026-04-24 05:36 23.53658 113.46934 13230 ft 382 kts 198°
2026-04-24 05:36 23.51105 113.46240 12646 ft 379 kts 198°
2026-04-24 05:36 23.48558 113.45547 12122 ft 373 kts 198°
2026-04-24 05:37 23.46006 113.44853 12007 ft 374 kts 198°
2026-04-24 05:37 23.43463 113.44162 11999 ft 375 kts 198°
2026-04-24 05:37 23.40987 113.43492 11899 ft 357 kts 198°
2026-04-24 05:37 23.38641 113.42860 11581 ft 335 kts 199°
2026-04-24 05:38 23.36430 113.42262 11298 ft 315 kts 199°
2026-04-24 05:38 23.34384 113.41708 11112 ft 295 kts 199°
2026-04-24 05:38 23.32434 113.41180 10780 ft 284 kts 199°
2026-04-24 05:38 23.30520 113.40657 10180 ft 283 kts 199°
2026-04-24 05:39 23.28601 113.40135 9572 ft 282 kts 199°
2026-04-24 05:39 23.26700 113.39619 8985 ft 281 kts 199°
2026-04-24 05:39 23.24813 113.39109 8414 ft 280 kts 198°
2026-04-24 05:39 23.22910 113.38594 7835 ft 278 kts 198°
2026-04-24 05:40 23.21034 113.38087 7282 ft 276 kts 197°
2026-04-24 05:40 23.19164 113.37582 6728 ft 275 kts 197°
2026-04-24 05:40 23.17304 113.37079 6177 ft 273 kts 197°
2026-04-24 05:40 23.15469 113.36583 5630 ft 272 kts 197°
2026-04-24 05:41 23.13638 113.36088 5133 ft 269 kts 196°
2026-04-24 05:41 23.11831 113.35600 4956 ft 265 kts 196°
2026-04-24 05:41 23.10084 113.35129 4818 ft 250 kts 196°
2026-04-24 05:41 23.08397 113.34674 4492 ft 243 kts 195°
2026-04-24 05:42 23.06819 113.34249 4449 ft 224 kts 195°
2026-04-24 05:42 23.05378 113.33860 4416 ft 205 kts 197°
2026-04-24 05:42 23.04175 113.33170 4244 ft 190 kts 230°
2026-04-24 05:42 23.03640 113.31912 3838 ft 188 kts 268°
2026-04-24 05:43 23.03850 113.30519 3473 ft 188 kts 285°
2026-04-24 05:43 23.04214 113.29159 3174 ft 186 kts 287°
2026-04-24 05:43 23.04576 113.27825 3014 ft 184 kts 287°
2026-04-24 05:43 23.04974 113.26501 2970 ft 185 kts 298°
2026-04-24 05:44 23.05898 113.25560 2961 ft 187 kts 338°
2026-04-24 05:44 23.07151 113.25188 2971 ft 188 kts 346°
2026-04-24 05:44 23.08433 113.24881 2973 ft 187 kts 346°
2026-04-24 05:44 23.09728 113.24601 2975 ft 188 kts 343°
2026-04-24 05:45 23.10946 113.24271 2971 ft 187 kts 352°
2026-04-24 05:45 23.12267 113.24269 2971 ft 189 kts
2026-04-24 05:45 23.13556 113.24506 2972 ft 189 kts 11°
2026-04-24 05:45 23.14848 113.24824 2972 ft 189 kts 12°
2026-04-24 05:46 23.16128 113.25166 2972 ft 188 kts 13°
2026-04-24 05:46 23.17413 113.25517 2973 ft 189 kts 13°
2026-04-24 05:46 23.18691 113.25864 2973 ft 189 kts 13°
2026-04-24 05:46 23.19965 113.26210 2973 ft 189 kts 13°
2026-04-24 05:47 23.21261 113.26559 2973 ft 189 kts 13°
2026-04-24 05:47 23.22551 113.26906 2840 ft 193 kts 13°
2026-04-24 05:47 23.23860 113.27258 2598 ft 193 kts 13°
2026-04-24 05:47 23.25148 113.27604 2356 ft 180 kts 13°
2026-04-24 05:48 23.26339 113.27924 2132 ft 171 kts 13°
2026-04-24 05:48 23.27484 113.28231 1919 ft 168 kts 13°
2026-04-24 05:48 23.28633 113.28539 1696 ft 168 kts 14°
2026-04-24 05:48 23.29744 113.28839 1481 ft 161 kts 14°
2026-04-24 05:49 23.30786 113.29119 1275 ft 147 kts 13°
2026-04-24 05:49 23.31776 113.29385 1085 ft 146 kts 13°
2026-04-24 05:49 23.32762 113.29649 891 ft 144 kts 13°
2026-04-24 05:49 23.33740 113.29912 701 ft 143 kts 13°
2026-04-24 05:50 23.34713 113.30173 510 ft 142 kts 13°
2026-04-24 05:50 23.35684 113.30435 329 ft 143 kts 13°
2026-04-24 05:50 23.36643 113.30698 153 ft 143 kts 13°
2026-04-24 05:50 23.37612 113.30952 59 ft 134 kts 12°
2026-04-24 05:51 23.38399 113.31160 58 ft 98 kts 13°
2026-04-24 05:51 23.38953 113.31311 58 ft 67 kts 12°
2026-04-24 05:51 23.39352 113.31395 58 ft 39 kts 356°
2026-04-24 05:51 23.39538 113.31348 58 ft 22 kts 343°
2026-04-24 05:52 23.39686 113.31311 58 ft 19 kts 352°
2026-04-24 05:52 23.39740 113.31277 58 ft 6 kts 293°
2026-04-24 05:52 23.39759 113.31207 58 ft 16 kts 285°
2026-04-24 05:52 23.39794 113.31062 58 ft 14 kts 283°
2026-04-24 05:53 23.39804 113.31012 58 ft 2 kts 283°
2026-04-24 05:53 23.39805 113.31007 58 ft 0 kts 283°
2026-04-24 05:54 23.39806 113.31001 58 ft 4 kts 283°
2026-04-24 05:54 23.39843 113.30961 58 ft 12 kts 342°
2026-04-24 05:55 23.39931 113.30969 58 ft 12 kts
2026-04-24 05:55 23.39995 113.30919 58 ft 11 kts 293°
2026-04-24 05:55 23.40013 113.30838 58 ft 9 kts 270°
2026-04-24 05:55 23.39975 113.30778 58 ft 10 kts 231°
2026-04-24 05:56 23.39958 113.30705 58 ft 10 kts 273°
2026-04-24 05:56 23.39973 113.30627 58 ft 10 kts 287°
2026-04-24 05:56 23.40063 113.30522 58 ft 0 kts 322°
2026-04-24 05:57 23.40064 113.30521 58 ft 0 kts 322°